EZY25XV EGAC-EGGW

Flight info

Callsign EZY25XV
Flight time N/A
Altitude 33000
Route DUFFY L10 RINGA Q39 ETIGA DCT INKOB Q39 NOMSU UQ4 LISTO
Aircraft A320/M-SDE3FGHIRWY/LB1

Departure

Time 2026-04-18 10:42
Airport George Best Belfast City Airport (EGAC)

Arrival

Time N/A
Airport London Luton Airport (EGGW)
Time Latitude Longitude Altitude Speed Heading
2026-04-18 10:11 54.61435 -5.87223 20 ft 0 kts 124°
2026-04-18 10:30 54.61444 -5.87250 20 ft 4 kts 101°
2026-04-18 10:30 54.61444 -5.87292 20 ft 2 kts 79°
2026-04-18 10:30 54.61444 -5.87294 20 ft 0 kts 79°
2026-04-18 10:38 54.61444 -5.87293 20 ft 0 kts 75°
2026-04-18 10:38 54.61464 -5.87265 22 ft 6 kts 31°
2026-04-18 10:38 54.61536 -5.87216 21 ft 16 kts 29°
2026-04-18 10:38 54.61638 -5.87098 22 ft 20 kts 34°
2026-04-18 10:39 54.61747 -5.87000 21 ft 10 kts 346°
2026-04-18 10:39 54.61795 -5.87094 21 ft 13 kts 301°
2026-04-18 10:39 54.61878 -5.87159 27 ft 17 kts 24°
2026-04-18 10:39 54.62003 -5.87017 20 ft 26 kts 33°
2026-04-18 10:40 54.62160 -5.86831 21 ft 29 kts 35°
2026-04-18 10:40 54.62327 -5.86633 24 ft 30 kts 38°
2026-04-18 10:40 54.62454 -5.86442 23 ft 12 kts 355°
2026-04-18 10:40 54.62475 -5.86509 23 ft 1 kts 256°
2026-04-18 10:41 54.62463 -5.86514 24 ft 5 kts 193°
2026-04-18 10:41 54.62419 -5.86528 25 ft 6 kts 214°
2026-04-18 10:41 54.62388 -5.86563 25 ft 0 kts 213°
2026-04-18 10:41 54.62386 -5.86565 26 ft 5 kts 213°
2026-04-18 10:42 54.62148 -5.86849 21 ft 81 kts 214°
2026-04-18 10:42 54.61512 -5.87615 27 ft 139 kts 215°
2026-04-18 10:42 54.60696 -5.88617 562 ft 144 kts 218°
2026-04-18 10:42 54.59731 -5.89174 1138 ft 158 kts 176°
2026-04-18 10:43 54.58562 -5.88785 1563 ft 179 kts 171°
2026-04-18 10:43 54.57378 -5.88203 2421 ft 173 kts 162°
2026-04-18 10:43 54.56219 -5.87365 2914 ft 192 kts 162°
2026-04-18 10:43 54.54867 -5.86633 3308 ft 218 kts 173°
2026-04-18 10:44 54.53293 -5.86214 3988 ft 236 kts 180°
2026-04-18 10:44 54.51623 -5.85454 4683 ft 265 kts 153°
2026-04-18 10:44 54.50194 -5.83281 5447 ft 285 kts 128°
2026-04-18 10:44 54.49038 -5.80467 6409 ft 291 kts 123°
2026-04-18 10:45 54.47934 -5.77521 7428 ft 295 kts 122°
2026-04-18 10:45 54.46812 -5.74527 8405 ft 301 kts 123°
2026-04-18 10:45 54.45640 -5.71510 9360 ft 305 kts 124°
2026-04-18 10:45 54.44442 -5.68456 10402 ft 309 kts 126°
2026-04-18 10:46 54.43195 -5.65351 11091 ft 326 kts 126°
2026-04-18 10:46 54.41854 -5.62049 11508 ft 348 kts 126°
2026-04-18 10:46 54.40442 -5.58560 12183 ft 359 kts 126°
2026-04-18 10:46 54.39016 -5.55024 13083 ft 362 kts 126°
2026-04-18 10:47 54.37576 -5.51450 13956 ft 366 kts 126°
2026-04-18 10:47 54.36118 -5.47857 14763 ft 370 kts 126°
2026-04-18 10:47 54.34636 -5.44217 15559 ft 374 kts 126°
2026-04-18 10:47 54.33147 -5.40554 16370 ft 376 kts 126°
2026-04-18 10:48 54.31659 -5.36900 17100 ft 380 kts 126°
2026-04-18 10:48 54.30138 -5.33168 17842 ft 383 kts 126°
2026-04-18 10:48 54.28605 -5.29408 18541 ft 387 kts 126°
2026-04-18 10:48 54.26986 -5.25703 19197 ft 391 kts 130°
2026-04-18 10:49 54.25238 -5.22093 19833 ft 396 kts 131°
2026-04-18 10:49 54.23477 -5.18457 20468 ft 401 kts 131°
2026-04-18 10:49 54.21701 -5.14759 21077 ft 405 kts 131°
2026-04-18 10:49 54.19909 -5.11029 21667 ft 409 kts 131°
2026-04-18 10:50 54.18096 -5.07264 22188 ft 413 kts 131°
2026-04-18 10:50 54.16259 -5.03459 22777 ft 416 kts 131°
2026-04-18 10:50 54.14409 -4.99628 23326 ft 421 kts 132°
2026-04-18 10:50 54.12537 -4.95758 23823 ft 425 kts 132°
2026-04-18 10:51 54.10650 -4.91862 24362 ft 428 kts 132°
2026-04-18 10:51 54.08752 -4.87946 24873 ft 432 kts 132°
2026-04-18 10:51 54.06824 -4.83984 25379 ft 435 kts 133°
2026-04-18 10:51 54.04880 -4.80000 25860 ft 439 kts 133°
2026-04-18 10:52 54.02943 -4.75947 26357 ft 444 kts 131°
2026-04-18 10:52 54.01077 -4.71753 26871 ft 447 kts 130°
2026-04-18 10:52 53.99218 -4.67507 27277 ft 451 kts 130°
2026-04-18 10:52 53.97328 -4.63191 27692 ft 455 kts 131°
2026-04-18 10:53 53.95423 -4.58884 28083 ft 459 kts 131°
2026-04-18 10:53 53.93489 -4.54538 28451 ft 461 kts 131°
2026-04-18 10:53 53.91541 -4.50195 28822 ft 465 kts 131°
2026-04-18 10:53 53.89583 -4.45833 29242 ft 465 kts 131°
2026-04-18 10:54 53.87606 -4.41438 29525 ft 470 kts 132°
2026-04-18 10:54 53.85644 -4.37006 29925 ft 471 kts 130°
2026-04-18 10:54 53.83759 -4.32411 30197 ft 477 kts 129°
2026-04-18 10:54 53.81892 -4.27748 30552 ft 479 kts 129°
2026-04-18 10:55 53.80014 -4.23071 30925 ft 481 kts 129°
2026-04-18 10:55 53.78116 -4.18401 31287 ft 483 kts 129°
2026-04-18 10:55 53.76201 -4.13727 31685 ft 482 kts 129°
2026-04-18 10:55 53.74286 -4.09079 32051 ft 482 kts 129°
2026-04-18 10:56 53.72368 -4.04431 32446 ft 482 kts 129°
2026-04-18 10:56 53.70455 -3.99804 32899 ft 480 kts 129°
2026-04-18 10:56 53.68538 -3.95185 33147 ft 480 kts 129°
2026-04-18 10:57 53.64724 -3.85998 33145 ft 477 kts 129°
2026-04-18 10:57 53.60893 -3.76839 33137 ft 478 kts 129°
2026-04-18 10:58 53.57215 -3.68054 33128 ft 477 kts 130°
2026-04-18 10:58 53.53382 -3.58933 33111 ft 478 kts 130°
2026-04-18 10:59 53.49541 -3.49832 33098 ft 477 kts 129°
2026-04-18 10:59 53.46145 -3.40234 33090 ft 482 kts 121°
2026-04-18 11:00 53.43431 -3.29888 33089 ft 485 kts 117°
2026-04-18 11:00 53.40767 -3.19492 33088 ft 485 kts 118°
2026-04-18 11:01 53.38134 -3.09093 33105 ft 486 kts 116°
2026-04-18 11:01 53.35790 -2.98451 33179 ft 488 kts 114°
2026-04-18 11:02 53.32259 -2.82539 33218 ft 485 kts 115°
2026-04-18 11:02 53.29782 -2.72041 33227 ft 483 kts 120°
2026-04-18 11:03 53.26801 -2.61960 33237 ft 483 kts 121°
2026-04-18 11:03 53.24342 -2.53600 33234 ft 482 kts 121°
2026-04-18 11:04 53.21375 -2.43550 33229 ft 482 kts 121°
2026-04-18 11:04 53.18401 -2.33540 33228 ft 480 kts 121°
2026-04-18 11:05 53.15284 -2.23770 33211 ft 473 kts 130°
2026-04-18 11:05 53.10935 -2.15803 32885 ft 458 kts 147°
2026-04-18 11:06 53.08385 -2.12656 32644 ft 456 kts 150°
2026-04-18 11:06 53.05826 -2.09561 32390 ft 455 kts 150°
2026-04-18 11:06 53.03265 -2.06441 32139 ft 456 kts 150°
2026-04-18 11:06 53.00710 -2.03329 31891 ft 456 kts 150°
2026-04-18 11:07 52.98151 -2.00223 31640 ft 455 kts 150°
2026-04-18 11:07 52.95596 -1.97129 31393 ft 454 kts 150°
2026-04-18 11:07 52.93048 -1.94044 31137 ft 453 kts 151°
2026-04-18 11:07 52.90490 -1.90954 30873 ft 453 kts 151°
2026-04-18 11:08 52.87843 -1.87775 30610 ft 451 kts 151°
2026-04-18 11:08 52.85400 -1.84839 30383 ft 449 kts 151°
2026-04-18 11:08 52.82902 -1.81833 30136 ft 444 kts 151°
2026-04-18 11:08 52.80411 -1.78828 29885 ft 444 kts 151°
2026-04-18 11:09 52.77916 -1.75832 29635 ft 443 kts 151°
2026-04-18 11:09 52.75418 -1.72881 29384 ft 438 kts 154°
2026-04-18 11:09 52.72823 -1.70330 29136 ft 431 kts 160°
2026-04-18 11:09 52.70164 -1.68062 28890 ft 430 kts 160°
2026-04-18 11:10 52.67526 -1.65793 28642 ft 426 kts 160°
2026-04-18 11:10 52.64898 -1.63531 28374 ft 424 kts 160°
2026-04-18 11:10 52.62296 -1.61296 27827 ft 421 kts 160°
2026-04-18 11:10 52.59707 -1.59074 27089 ft 415 kts 160°
2026-04-18 11:11 52.57121 -1.56849 26136 ft 410 kts 160°
2026-04-18 11:11 52.54652 -1.54743 25235 ft 406 kts 160°
2026-04-18 11:11 52.52163 -1.52621 24380 ft 400 kts 161°
2026-04-18 11:11 52.49716 -1.50535 23408 ft 394 kts 161°
2026-04-18 11:12 52.47295 -1.48474 22524 ft 389 kts 161°
2026-04-18 11:12 52.44889 -1.46432 21590 ft 386 kts 161°
2026-04-18 11:12 52.42536 -1.44423 20889 ft 383 kts 161°
2026-04-18 11:12 52.40213 -1.42448 20383 ft 377 kts 161°
2026-04-18 11:13 52.37891 -1.40486 20234 ft 377 kts 161°
2026-04-18 11:13 52.35571 -1.38531 20220 ft 380 kts 161°
2026-04-18 11:13 52.33268 -1.36593 20221 ft 378 kts 161°
2026-04-18 11:13 52.30959 -1.34644 20220 ft 379 kts 161°
2026-04-18 11:14 52.28584 -1.32633 20195 ft 379 kts 160°
2026-04-18 11:14 52.26288 -1.30509 19846 ft 379 kts 158°
2026-04-18 11:14 52.24027 -1.28330 19330 ft 377 kts 158°
2026-04-18 11:14 52.21765 -1.26149 18748 ft 374 kts 158°
2026-04-18 11:15 52.19540 -1.24024 18131 ft 371 kts 158°
2026-04-18 11:15 52.17315 -1.21913 17529 ft 369 kts 158°
2026-04-18 11:15 52.15128 -1.19858 16987 ft 366 kts 158°
2026-04-18 11:15 52.12896 -1.17763 16423 ft 361 kts 158°
2026-04-18 11:16 52.10746 -1.15729 15788 ft 360 kts 155°
2026-04-18 11:16 52.08861 -1.12943 15359 ft 372 kts 133°
2026-04-18 11:16 52.07679 -1.09199 15241 ft 386 kts 111°
2026-04-18 11:16 52.07307 -1.04806 15227 ft 393 kts 90°
2026-04-18 11:17 52.07844 -1.00437 15219 ft 399 kts 69°
2026-04-18 11:17 52.09199 -0.96515 15222 ft 398 kts 52°
2026-04-18 11:17 52.10911 -0.92990 15213 ft 397 kts 49°
2026-04-18 11:17 52.12637 -0.89500 15211 ft 396 kts 50°
2026-04-18 11:18 52.12750 -0.89264 15212 ft 397 kts 50°
2026-04-18 11:19 52.22221 -0.66988 13677 ft 331 kts 55°
2026-04-18 11:21 52.27582 -0.53827 12106 ft 291 kts 55°
2026-04-18 11:22 52.32408 -0.41995 10135 ft 274 kts 55°
2026-04-18 11:23 52.32535 -0.27548 8221 ft 265 kts 122°
2026-04-18 11:24 52.25822 -0.21256 7560 ft 249 kts 170°
2026-04-18 11:26 52.15923 -0.17229 5828 ft 242 kts 170°
2026-04-18 11:27 52.06886 -0.13554 4445 ft 237 kts 170°
2026-04-18 11:29 51.97210 -0.09619 3373 ft 194 kts 170°